Weather Roundup
Issued by NWS Chicago, IL

Home | Current Version | Previous Version | Graphics & Text | Print | Product List | Glossary On
Versions: 1 2 3 4 5 6 7 8 9 10 11 12 13 14 15 16 17 18 19 20 21 22 23 24 25 26 27 28 29 30 31 32 33 34 35 36 37 38 39 40 41 42 43 44 45 46 47 48 49 50
000
NZUS59 KLOT 110807
HRRLOT

CHICAGO AREA WEATHER ROUNDUP
NATIONAL WEATHER SERVICE CHICAGO/ROMEOVILLE IL
200 AM CST SUN DEC 11 2016

NOTE: "FAIR" INDICATES FEW OR NO CLOUDS BELOW 12,000 FEET WITH NO
SIGNIFICANT WEATHER AND/OR OBSTRUCTIONS TO VISIBILITY.

* THESE STATIONS ARE NOT UNDER NWS QUALITY CONTROL. THEY ALSO MAY NOT
  REPORT WEATHER SUCH AS PRECIPITATION OR FOG.

ILZ005-006-012>014-019>023-110900-
NORTHEAST ILLINOIS

CITY           SKY/WX    TMP DP  RH WIND       PRES   REMARKS
OHARE          LGT SNOW  24  21  88 SE10      30.22F FOG     WCI  14
MIDWAY         LGT SNOW  25  20  81 SE13      30.22F FOG     WCI  14
AURORA         LGT SNOW  25  21  85 SE13      30.19F FOG     WCI  14
LANSING*       CLOUDY    24  23  96 SE7       30.24F WCI  16
JOLIET*        LGT SNOW  26  24  89 SE8       30.21F WCI  18
WAUKEGAN       LGT SNOW  24  21  88 S7        30.22F FOG     WCI  16
DUPAGE AIRPORT LGT SNOW  24  20  84 SE10      30.18F FOG     WCI  14
WHEELING       CLOUDY    24  20  84 SE9       30.24F WCI  14
KANKAKEE*      LGT SNOW  26  23  89 SE12      30.21F WCI  15
MORRIS*        LGT SNOW  26  22  87 SE12      30.18F WCI  15
LEWIS AIRPORT* LGT SNOW  24  24  99 SE15      30.20F WCI  12
NORTHERLY ISL    N/A     25  23  92 SE12        N/A  WCI  14
$$

WIZ051-052-058>065-066-070>072-110900-
SOUTHEAST WISCONSIN

CITY           SKY/WX    TMP DP  RH WIND       PRES   REMARKS
MILWAUKEE      LGT SNOW  24  20  84 S8        30.23F FOG     WCI  15
KENOSHA*       LGT SNOW  24  20  84 S10       30.22F VSB 1   WCI  14
RACINE*        LGT SNOW  24  20  84 S7        30.24F FOG     WCI  16
BURLINGTON     LGT SNOW  26  25  96 CALM      30.19F
WAUKESHA       LGT SNOW  21  19  93 SE7       30.20F WCI  13
WEST BEND      LGT SNOW  21  21 100 SE3       30.21F
$$

INZ001>003-010>013-019-020-110900-
NORTHWEST INDIANA

CITY           SKY/WX    TMP DP  RH WIND       PRES   REMARKS
GARY*          LGT SNOW  26  24  91 SE7       30.26F WCI  19
MICHIGAN CITY* NOT AVBL
RENSSELAER*    NOT AVBL
VALPARAISO     LGT SNOW  25  21  85 MISG      30.26F FOG
$$

LMZ740>746-110900-
SOUTHERN LAKE MICHIGAN

STATION/POSITION TIME  SKY/WX   TEMP WIND        PRES    VSBY
                                AIR  DIR/SP/G
                 (UTC)          (F)  (DEG/KT/KT) (MB)    (MI)
HARRISON CRIB    NOT AVBL
BURNHAM HARBOR   0800            26  170/ 10/ 13   N/A
CALUMET HARBOR   0730            24  130/  7/ 11 1023.7F
BURNS HARBOR     0740            24  160/ 10/ 13 1025.1F
MICHIGAN CITY    NOT AVBL
$$

ABBREVIATIONS USED IN REMARKS
   TC - TEMPERATURE IN CELSIUS
  WCI - WIND CHILL INDEX
   HX - HEAT INDEX
  VSB - VISIBILITY
$$




USA.gov is the U.S. government's official web portal to all federal, state and local government web resources and services.